Cloud_Cover
0 0 0 0 0 0 0 0 5 5 80 64 78 98 85 96 87 25 5 5 5 5 5 4 5 5 5 5 5 5 6 92 100 50 28 71 47 53 70 42 4 3 5
0 0 0 0 0 0 0 4 5 87 100 99 100 100 96 80 64 69 13 63 14 87 74 83 62 5 5 18 71 6 29 97 100 5 5 5 5 75 10 22 26 3 4
0 0 0 0 0 5 5 5 66 100 100 100 71 26 88 94 88 40 32 71 16 5 5 5 5 9 10 17 9 83 99 86 50 5 4 2 3 24 59 63 97 85 27
0 0 0 0 5 5 5 5 18 3 5 16 89 100 98 42 100 72 69 32 5 14 5 5 5 22 82 98 84 100 100 100 13 5 5 26 23 5 4 24 75 100 96
0 0 0 4 4 4 5 5 5 5 26 98 100 100 100 100 92 53 5 18 93 72 7 5 6 48 88 100 100 99 99 59 5 6 7 5 5 27 72 20 98 100 100
0 0 4 5 0 5 5 5 9 61 83 65 47 23 69 59 37 33 16 18 32 13 47 98 100 100 100 100 100 100 74 89 86 90 99 100 98 100 100 100 100 100 100
3 5 5 5 5 5 5 18 51 89 79 64 98 68 70 81 88 71 99 96 71 100 100 100 96 48 94 100 100 100 100 100 82 58 90 99 100 100 100 100 100 92 100
2 3 5 5 7 52 95 100 79 51 15 32 50 99 53 93 95 82 100 100 100 100 100 28 97 99 100 100 100 100 100 100 85 79 74 100 100 100 99 100 100 100 100
5 7 15 80 100 100 90 5 29 76 65 68 43 47 59 96 100 93 100 100 100 100 100 31 89 100 100 100 99 88 100 96 82 85 62 100 100 100 100 100 100 100 100
20 58 97 46 39 7 70 51 10 48 35 88 92 100 98 94 93 100 100 100 100 98 61 78 100 100 100 100 100 100 100 100 100 100 100 100 99 100 100 100 100 100 100
71 73 71 85 84 92 100 100 100 100 98 96 57 73 86 100 100 100 49 94 76 70 73 90 95 99 78 100 92 100 100 100 100 100 99 94 100 100 100 100 100 100 99
78 89 98 100 100 100 82 70 74 96 96 96 100 100 100 100 88 100 100 100 100 100 96 73 55 92 92 98 100 100 100 100 100 100 100 100 100 100 100 100 100 96 100
73 100 100 100 100 98 65 95 73 86 99 100 100 100 100 100 96 100 100 96 100 99 100 90 61 83 68 80 81 93 78 80 98 100 100 99 100 100 100 100 100 100 100
64 93 87 92 71 90 75 64 84 100 100 86 98 56 33 61 94 100 100 100 99 96 33 5 5 5 5 5 7 27 18 18 41 76 98 96 90 86 97 99 91 98 100
100 97 38 56 98 100 100 100 82 84 95 98 44 5 68 95 100 100 99 97 73 5 5 5 5 5 5 73 5 4 5 5 6 19 35 94 100 78 16 13 91 100 67
5 61 100 100 100 92 78 86 86 13 5 5 28 79 98 99 100 100 97 93 5 5 5 5 24 96 100 98 5 3 5 5 5 42 67 90 100 98 100 80 5 25 96
74 79 78 82 91 91 65 100 99 100 91 98 100 89 76 100 100 100 100 100 24 7 62 95 100 100 100 76 5 5 5 5 33 98 100 100 100 100 100 100 100 99 83
23 78 92 97 74 6 5 100 100 100 100 100 100 86 97 100 100 100 100 100 100 100 100 100 98 92 100 96 7 5 37 94 100 100 100 100 100 100 96 99 100 100 100
99 100 96 28 5 5 50 100 100 100 100 100 70 82 97 99 100 100 100 100 100 100 100 92 90 97 99 96 90 27 100 100 100 100 100 100 98 100 94 100 100 100 100
71 5 15 5 5 5 5 5 23 100 100 100 100 40 96 100 100 100 100 100 100 100 30 23 97 100 97 100 100 91 100 100 100 100 100 94 98 100 100 100 100 100 100
41 6 32 27 5 5 5 5 18 100 100 100 98 50 90 100 100 100 100 100 100 81 64 15 82 98 100 95 100 96 100 100 100 100 100 100 100 100 100 97 100 99 98
5 5 5 5 5 5 5 5 21 31 29 66 27 66 100 100 100 100 100 100 91 98 65 100 85 100 89 100 100 96 48 100 100 100 100 100 98 98 100 100 100 100 100
5 5 5 5 5 11 68 83 91 49 89 62 85 100 100 100 100 100 100 99 100 100 100 100 100 100 99 100 100 81 100 100 100 100 100 100 100 100 100 100 100 100 100
5 5 5 10 89 100 100 100 45 91 100 100 100 100 100 100 100 100 100 100 98 97 100 100 100 100 100 100 100 100 100 100 100 100 100 100 100 100 100 100 100 100 100
5 5 66 100 100 100 100 96 99 95 97 100 99 100 100 100 99 68 93 75 98 53 47 59 95 100 100 100 100 100 100 100 100 100 100 100 100 100 100 100 100 100 100
5 73 88 88 88 48 98 88 100 89 50 84 90 99 93 98 94 93 98 95 6 5 5 5 12 86 98 100 100 100 100 100 100 100 100 100 100 100 100 100 100 100 100